Regional Weather Roundup
Issued by NWS

Home | Current Version | Previous Version | Graphics & Text | Print | Product List | Glossary On
Versions: 1 2 3 4 5 6 7 8 9 10 11 12 13 14 15 16 17 18 19 20 21 22 23 24 25 26 27 28 29 30 31 32 33 34 35 36 37 38 39 40 41 42 43 44 45 46 47 48 49 50
860
ASUS43 KDMX 241703
RWRIA

WEATHER ROUNDUP FOR IOWA
NATIONAL WEATHER SERVICE DES MOINES IA
1200 PM CDT TUE MAY 24 2016

NOTE: "FAIR" INDICATES FEW OR NO CLOUDS BELOW 12,000 FEET WITH NO
SIGNIFICANT WEATHER AND/OR OBSTRUCTIONS TO VISIBILITY.

* - THESE STATIONS ARE NOT NWS STATIONS...THUS NOT UNDER NWS
QUALITY CONTROL.  THEY ALSO DO NOT REPORT WEATHER SUCH
AS PRECIPITATION OR FOG.

IAZ001>003-012>014-020>022-031>034-043>046-241800-
   NORTHWEST IOWA

CITY           SKY/WX    TMP DP  RH WIND       PRES   REMARKS
CARROLL *      CLOUDY    72  66  83 SW5       29.91R
CHEROKEE *     MOSUNNY   72  66  82 S6        29.89S
DENISON *      MOSUNNY   70  64  83 S6        29.89R
LE MARS *      CLOUDY    72  66  83 VRB7      29.88S
ORANGE CITY *  MOSUNNY   72  66  83 SW7       29.88S
SHELDON *      CLOUDY    72  66  83 S8        29.88R
SIOUX CITY     CLOUDY    73  65  75 VRB5      29.88S
SPENCER        MOSUNNY   73  63  70 SW6       29.89S
STORM LAKE *   MOSUNNY   70  64  83 SW8       29.91S
$$

IAZ055>058-069>071-079>083-090>094-241800-
   SOUTHWEST IOWA

CITY           SKY/WX    TMP DP  RH WIND       PRES   REMARKS
ATLANTIC *     CLOUDY    72  63  73 CALM      29.91S
AUDUBON *        N/A     72  66  83 SW3       29.93R
CLARINDA *       N/A     72  63  73 MISG      29.90R
COUNCIL BLFS * SUNNY     72  63  73 S3        29.90S
CRESTON *      PTSUNNY   70  64  83 SE8       29.92F
HARLAN  *        N/A    N/A N/A N/A MISG        N/A
LAMONI         CLOUDY    73  66  78 S9        29.94F
RED OAK *      CLOUDY    72  63  73 CALM      29.90S
SHENANDOAH *   CLOUDY    72  63  73 NE8       29.89S
$$

IAZ047>049-059>061-072>074-084-241800-
   CENTRAL IOWA

CITY           SKY/WX    TMP DP  RH WIND       PRES   REMARKS
AMES           PTSUNNY   72  65  78 S7        29.92S
ANKENY *       CLOUDY    70  64  83 CALM      29.92F
BOONE *        PTSUNNY   72  66  83 S6        29.91F
CHARITON *     CLOUDY    77  63  61 SW9       29.94S
DES MOINES     CLOUDY    73  63  70 W3        29.92F
GRINNELL*      CLOUDY    73  63  68 S9        29.94S
KNOXVILLE *    CLOUDY    75  63  64 S6        29.92F
MARSHALLTOWN   MOSUNNY   73  64  73 SW10      29.93S
NEWTON *       CLOUDY    72  64  78 SW7       29.94S
PERRY *          N/A     72  66  83 CALM      29.91F
$$

IAZ004>006-015-016-023>025-035-036-241800-
   NORTH CENTRAL IOWA

CITY           SKY/WX    TMP DP  RH WIND       PRES   REMARKS
ALGONA *       PTSUNNY   73  61  64 W6        29.91S
CLARION *      CLOUDY    72  64  78 SW7       29.92R
ESTHERVILLE    CLOUDY    72  63  73 SW9       29.89S
FORT DODGE *   CLOUDY    72  63  73 W7        29.92S
MASON CITY     MOSUNNY   71  64  78 SW6       29.93S
FOREST CITY *  PTSUNNY   70  63  78 S7        29.92S
WEBSTER CITY * CLOUDY    72  66  83 SW5       29.90S
IOWA FALLS *     N/A     75  64  69 SW6       29.94S
$$

IAZ007>011-017>019-026>030-037>042-050>054-066-241800-
   NORTHEAST IOWA

CITY           SKY/WX    TMP DP  RH WIND       PRES   REMARKS
CEDAR RAPIDS   CLOUDY    77  65  66 S12G17    29.94R
CHARLES CITY * SUNNY     73  63  68 VRB5      29.94R
CLINTON *      MOSUNNY   82  63  52 SW16      29.95F HX  83
DECORAH *      PTSUNNY   75  59  57 VRB6      29.94R
DUBUQUE        CLOUDY    75  62  64 S10       29.96R
MONTICELLO *   CLOUDY    77  59  53 S14G20    29.95R
OELWEIN *      PTSUNNY   75  61  60 SW7       29.94S
WATERLOO       CLOUDY    77  61  57 S6        29.92S
$$

IAZ064-065-067-068-078-241800-
   EAST CENTRAL IOWA

CITY           SKY/WX    TMP DP  RH WIND       PRES   REMARKS
DAVENPORT      CLOUDY    82  60  47 S14       29.96S HX  82
IOWA CITY      CLOUDY    78  61  55 S10       29.95F HX  80
MT. PLEASANT * SUNNY     82  63  51 S12G17    29.96S HX  83
MUSCATINE *    PTSUNNY   81  61  50 SW10G16   29.95S HX  81
QUAD CITIES    PTSUNNY   82  59  45 S10       29.94S HX  82
$$

IAZ062-063-075>077-085>089-095>099-241800-
   SOUTHEAST IOWA

CITY           SKY/WX    TMP DP  RH WIND       PRES   REMARKS
BURLINGTON     CLOUDY    77  63  61 S13G21    29.96S
FAIRFIELD *      N/A    N/A N/A N/A MISG        N/A
FORT MADISON * PTSUNNY   79  63  57 S9        29.97S HX  80
KEOKUK *       CLOUDY    79  63  57 S12       29.95F HX  80
OSKALOOSA *    PTSUNNY   77  64  65 S10       29.94S
OTTUMWA        PTSUNNY   78  65  63 S8        29.94R HX  80
WASHINGTON *   SUNNY     79  63  57 S12G18    29.96S HX  80
$$

ABBREVIATIONS USED IN REMARKS
   TC - TEMPERATURES IN CELSIUS
  WCI - WIND CHILL INDEX
   HX - HEAT INDEX
  VSB - VISIBILITY
$$





USA.gov is the U.S. government's official web portal to all federal, state and local government web resources and services.